Year,Month,Day,Hour,Minute,Value (Times are PST for windgust in km/hr)
2013,04,10,00,19,1.60
2013,04,10,00,20,1.60
2013,04,10,00,30,1.60
2013,04,10,01,03,3.20
2013,04,10,01,23,1.60
2013,04,10,02,02,6.40
2013,04,10,02,03,1.60
2013,04,10,02,07,1.60
2013,04,10,02,08,3.20
2013,04,10,02,09,3.20
2013,04,10,02,19,1.60
2013,04,10,02,34,1.60
2013,04,10,02,35,1.60
2013,04,10,02,40,1.60
2013,04,10,03,30,1.60
2013,04,10,04,08,1.60
2013,04,10,04,09,3.20
2013,04,10,04,10,3.20
2013,04,10,04,30,1.60
2013,04,10,04,32,1.60
2013,04,10,04,46,1.60
2013,04,10,04,47,1.60
2013,04,10,04,49,3.20
2013,04,10,04,50,1.60
2013,04,10,05,05,1.60
2013,04,10,05,41,1.60
2013,04,10,06,24,3.20
2013,04,10,06,25,4.80
2013,04,10,06,26,6.40
2013,04,10,06,27,12.90
2013,04,10,06,28,11.30
2013,04,10,06,29,8.10
2013,04,10,06,30,8.10
2013,04,10,06,31,4.80
2013,04,10,06,32,4.80
2013,04,10,06,33,4.80
2013,04,10,06,34,3.20
2013,04,10,06,35,4.80
2013,04,10,06,36,3.20
2013,04,10,06,37,4.80
2013,04,10,06,39,6.40
2013,04,10,06,40,4.80
2013,04,10,06,43,3.20
2013,04,10,06,44,3.20
2013,04,10,06,47,3.20
2013,04,10,06,50,1.60
2013,04,10,07,13,1.60
2013,04,10,07,14,1.60
2013,04,10,07,15,3.20
2013,04,10,07,19,1.60
2013,04,10,07,20,1.60
2013,04,10,07,34,1.60
2013,04,10,07,35,3.20
2013,04,10,07,36,3.20
2013,04,10,07,38,4.80
2013,04,10,07,39,4.80
2013,04,10,07,40,3.20
2013,04,10,07,41,4.80
2013,04,10,07,42,3.20
2013,04,10,07,43,4.80
2013,04,10,07,44,6.40
2013,04,10,07,45,4.80
2013,04,10,07,46,6.40
2013,04,10,07,47,6.40
2013,04,10,07,48,6.40
2013,04,10,07,49,4.80
2013,04,10,07,50,11.30
2013,04,10,07,51,16.10
2013,04,10,07,52,8.10
2013,04,10,07,53,9.60
2013,04,10,07,54,9.60
2013,04,10,07,55,14.50
2013,04,10,07,56,9.60
2013,04,10,07,57,6.40
2013,04,10,07,58,9.60
2013,04,10,07,59,8.10
2013,04,10,08,00,9.60
2013,04,10,08,01,16.10
2013,04,10,08,02,20.90
2013,04,10,08,03,20.90
2013,04,10,08,04,20.90
2013,04,10,08,05,16.10
2013,04,10,08,06,25.70
2013,04,10,08,07,14.50
2013,04,10,08,08,11.30
2013,04,10,08,09,8.10
2013,04,10,08,10,11.30
2013,04,10,08,11,17.70
2013,04,10,08,12,25.70
2013,04,10,08,13,16.10
2013,04,10,08,14,29.00
2013,04,10,08,15,20.90
2013,04,10,08,16,19.30
2013,04,10,08,17,11.30
2013,04,10,08,18,17.70
2013,04,10,08,19,25.70
2013,04,10,08,20,19.30
2013,04,10,08,21,19.30
2013,04,10,08,22,29.00
2013,04,10,08,23,17.70
2013,04,10,08,24,17.70
2013,04,10,08,25,20.90
2013,04,10,08,26,17.70
2013,04,10,08,27,25.70
2013,04,10,08,28,12.90
2013,04,10,08,29,22.50
2013,04,10,08,30,17.70
2013,04,10,08,31,29.00
2013,04,10,08,32,16.10
2013,04,10,08,33,33.80
2013,04,10,08,34,14.50
2013,04,10,08,35,19.30
2013,04,10,08,36,20.90
2013,04,10,08,37,25.70
2013,04,10,08,38,19.30
2013,04,10,08,39,25.70
2013,04,10,08,40,24.20
2013,04,10,08,41,22.50
2013,04,10,08,42,20.90
2013,04,10,08,43,25.70
2013,04,10,08,44,20.90
2013,04,10,08,45,33.80
2013,04,10,08,46,27.40
2013,04,10,08,47,29.00
2013,04,10,08,48,32.20
2013,04,10,08,49,30.60
2013,04,10,08,50,27.40
2013,04,10,08,51,14.50
2013,04,10,08,52,14.50
2013,04,10,08,53,19.30
2013,04,10,08,54,20.90
2013,04,10,08,55,16.10
2013,04,10,08,56,30.60
2013,04,10,08,57,14.50
2013,04,10,08,58,35.40
2013,04,10,08,59,32.20
2013,04,10,09,00,30.60
2013,04,10,09,01,20.90
2013,04,10,09,02,22.50
2013,04,10,09,03,20.90
2013,04,10,09,04,14.50
2013,04,10,09,05,16.10
2013,04,10,09,06,32.20
2013,04,10,09,07,29.00
2013,04,10,09,08,20.90
2013,04,10,09,09,17.70
2013,04,10,09,10,35.40
2013,04,10,09,11,29.00
2013,04,10,09,12,32.20
2013,04,10,09,13,40.20
2013,04,10,09,14,29.00
2013,04,10,09,15,41.80
2013,04,10,09,16,33.80
2013,04,10,09,17,24.20
2013,04,10,09,18,22.50
2013,04,10,09,19,27.40
2013,04,10,09,20,29.00
2013,04,10,09,21,25.70
2013,04,10,09,22,25.70
2013,04,10,09,23,37.00
2013,04,10,09,24,30.60
2013,04,10,09,25,22.50
2013,04,10,09,26,24.20
2013,04,10,09,27,32.20
2013,04,10,09,28,29.00
2013,04,10,09,29,25.70
2013,04,10,09,30,25.70
2013,04,10,09,31,37.00
2013,04,10,09,32,33.80
2013,04,10,09,33,29.00
2013,04,10,09,34,27.40
2013,04,10,09,35,35.40
2013,04,10,09,36,37.00
2013,04,10,09,37,30.60
2013,04,10,09,38,24.20
2013,04,10,09,39,38.60
2013,04,10,09,40,29.00
2013,04,10,09,41,19.30
2013,04,10,09,42,38.60
2013,04,10,09,43,33.80
2013,04,10,09,44,41.80
2013,04,10,09,45,43.50
2013,04,10,09,46,30.60
2013,04,10,09,47,29.00
2013,04,10,09,48,38.60
2013,04,10,09,49,41.80
2013,04,10,09,50,33.80
2013,04,10,09,51,37.00
2013,04,10,09,52,43.50
2013,04,10,09,53,49.90
2013,04,10,09,54,30.60
2013,04,10,09,55,32.20
2013,04,10,09,56,35.40
2013,04,10,09,57,30.60
2013,04,10,09,58,38.60
2013,04,10,09,59,35.40
2013,04,10,10,00,41.80
2013,04,10,10,01,32.20
2013,04,10,10,02,49.90
2013,04,10,10,03,29.00
2013,04,10,10,04,32.20
2013,04,10,10,05,33.80
2013,04,10,10,06,33.80
2013,04,10,10,07,43.50
2013,04,10,10,08,35.40
2013,04,10,10,09,27.40
2013,04,10,10,10,43.50
2013,04,10,10,11,45.10
2013,04,10,10,12,37.00
2013,04,10,10,13,43.50
2013,04,10,10,14,33.80
2013,04,10,10,15,22.50
2013,04,10,10,16,37.00
2013,04,10,10,17,38.60
2013,04,10,10,18,38.60
2013,04,10,10,19,40.20
2013,04,10,10,20,41.80
2013,04,10,10,21,20.90
2013,04,10,10,22,40.20
2013,04,10,10,23,57.90
2013,04,10,10,24,40.20
2013,04,10,10,25,40.20
2013,04,10,10,26,32.20
2013,04,10,10,27,38.60
2013,04,10,10,28,27.40
2013,04,10,10,29,53.10
2013,04,10,10,30,51.50
2013,04,10,10,31,43.50
2013,04,10,10,32,35.40
2013,04,10,10,33,41.80
2013,04,10,10,34,43.50
2013,04,10,10,35,29.00
2013,04,10,10,36,40.20
2013,04,10,10,37,43.50
2013,04,10,10,38,35.40
2013,04,10,10,39,37.00
2013,04,10,10,40,37.00
2013,04,10,10,41,30.60
2013,04,10,10,42,46.70
2013,04,10,10,43,40.20
2013,04,10,10,44,32.20
2013,04,10,10,45,45.10
2013,04,10,10,46,32.20
2013,04,10,10,47,37.00
2013,04,10,10,48,35.40
2013,04,10,10,49,59.50
2013,04,10,10,50,48.30
2013,04,10,10,51,37.00
2013,04,10,10,52,46.70
2013,04,10,10,53,38.60
2013,04,10,10,54,38.60
2013,04,10,10,55,25.70
2013,04,10,10,56,37.00
2013,04,10,10,57,32.20
2013,04,10,10,58,46.70
2013,04,10,10,59,35.40
2013,04,10,11,00,48.30
2013,04,10,11,01,40.20
2013,04,10,11,02,27.40
2013,04,10,11,03,37.00
2013,04,10,11,04,38.60
2013,04,10,11,05,53.10
2013,04,10,11,06,49.90
2013,04,10,11,07,48.30
2013,04,10,11,08,46.70
2013,04,10,11,09,41.80
2013,04,10,11,10,56.30
2013,04,10,11,11,40.20
2013,04,10,11,12,33.80
2013,04,10,11,13,40.20
2013,04,10,11,14,33.80
2013,04,10,11,15,41.80
2013,04,10,11,16,24.20
2013,04,10,11,17,27.40
2013,04,10,11,18,29.00
2013,04,10,11,19,49.90
2013,04,10,11,20,51.50
2013,04,10,11,21,38.60
2013,04,10,11,22,35.40
2013,04,10,11,23,41.80
2013,04,10,11,24,25.70
2013,04,10,11,25,41.80
2013,04,10,11,26,45.10
2013,04,10,11,27,35.40
2013,04,10,11,28,14.50
2013,04,10,11,29,29.00
2013,04,10,11,30,46.70
2013,04,10,11,31,25.70
2013,04,10,11,32,40.20
2013,04,10,11,33,37.00
2013,04,10,11,34,30.60
2013,04,10,11,35,20.90
2013,04,10,11,36,38.60
2013,04,10,11,37,33.80
2013,04,10,11,38,43.50
2013,04,10,11,39,46.70
2013,04,10,11,40,33.80
2013,04,10,11,41,20.90
2013,04,10,11,42,33.80
2013,04,10,11,43,22.50
2013,04,10,11,44,41.80
2013,04,10,11,45,30.60
2013,04,10,11,46,35.40
2013,04,10,11,47,35.40
2013,04,10,11,48,19.30
2013,04,10,11,49,51.50
2013,04,10,11,50,48.30
2013,04,10,11,51,41.80
2013,04,10,11,52,45.10
2013,04,10,11,53,25.70
2013,04,10,11,54,27.40
2013,04,10,11,55,35.40
2013,04,10,11,56,35.40
2013,04,10,11,57,35.40
2013,04,10,11,58,20.90
2013,04,10,11,59,24.20
2013,04,10,12,00,33.80
2013,04,10,12,01,33.80
2013,04,10,12,02,29.00
2013,04,10,12,03,45.10
2013,04,10,12,04,41.80
2013,04,10,12,05,35.40
2013,04,10,12,06,32.20
2013,04,10,12,07,37.00
2013,04,10,12,08,25.70
2013,04,10,12,09,30.60
2013,04,10,12,10,35.40
2013,04,10,12,11,35.40
2013,04,10,12,12,38.60
2013,04,10,12,13,35.40
2013,04,10,12,14,24.20
2013,04,10,12,15,30.60
2013,04,10,12,16,20.90
2013,04,10,12,17,37.00
2013,04,10,12,18,30.60
2013,04,10,12,19,29.00
2013,04,10,12,20,45.10
2013,04,10,12,21,45.10
2013,04,10,12,22,37.00
2013,04,10,12,23,41.80
2013,04,10,12,24,29.00
2013,04,10,12,25,22.50
2013,04,10,12,26,22.50
2013,04,10,12,27,19.30
2013,04,10,12,28,37.00
2013,04,10,12,29,29.00
2013,04,10,12,30,32.20
2013,04,10,12,31,25.70
2013,04,10,12,32,14.50
2013,04,10,12,33,30.60
2013,04,10,12,34,25.70
2013,04,10,12,35,29.00
2013,04,10,12,36,30.60
2013,04,10,12,37,35.40
2013,04,10,12,38,29.00
2013,04,10,12,39,30.60
2013,04,10,12,40,20.90
2013,04,10,12,41,32.20
2013,04,10,12,42,35.40
2013,04,10,12,43,25.70
2013,04,10,12,44,22.50
2013,04,10,12,45,30.60
2013,04,10,12,46,24.20
2013,04,10,12,47,20.90
2013,04,10,12,48,25.70
2013,04,10,12,49,17.70
2013,04,10,12,50,22.50
2013,04,10,12,51,33.80
2013,04,10,12,52,27.40
2013,04,10,12,53,25.70
2013,04,10,12,54,20.90
2013,04,10,12,55,22.50
2013,04,10,12,56,20.90
2013,04,10,12,57,17.70
2013,04,10,12,58,20.90
2013,04,10,12,59,24.20
2013,04,10,13,00,20.90
2013,04,10,13,01,24.20
2013,04,10,13,02,29.00
2013,04,10,13,03,17.70
2013,04,10,13,04,29.00
2013,04,10,13,05,24.20
2013,04,10,13,06,17.70
2013,04,10,13,07,20.90
2013,04,10,13,08,22.50
2013,04,10,13,09,20.90
2013,04,10,13,10,14.50
2013,04,10,13,11,27.40
2013,04,10,13,12,19.30
2013,04,10,13,13,20.90
2013,04,10,13,14,24.20
2013,04,10,13,15,22.50
2013,04,10,13,16,30.60
2013,04,10,13,17,22.50
2013,04,10,13,18,17.70
2013,04,10,13,19,20.90
2013,04,10,13,20,17.70
2013,04,10,13,21,24.20
2013,04,10,13,22,19.30
2013,04,10,13,23,29.00
2013,04,10,13,24,22.50
2013,04,10,13,25,17.70
2013,04,10,13,26,22.50
2013,04,10,13,27,22.50
2013,04,10,13,28,33.80
2013,04,10,13,29,32.20
2013,04,10,13,30,20.90
2013,04,10,13,31,24.20
2013,04,10,13,32,17.70
2013,04,10,13,33,22.50
2013,04,10,13,34,17.70
2013,04,10,13,35,25.70
2013,04,10,13,36,43.50
2013,04,10,13,37,27.40
2013,04,10,13,38,40.20
2013,04,10,13,39,29.00
2013,04,10,13,40,40.20
2013,04,10,13,41,32.20
2013,04,10,13,42,17.70
2013,04,10,13,43,24.20
2013,04,10,13,44,19.30
2013,04,10,13,45,22.50
2013,04,10,13,46,27.40
2013,04,10,13,47,33.80
2013,04,10,13,48,25.70
2013,04,10,13,49,20.90
2013,04,10,13,50,16.10
2013,04,10,13,51,25.70
2013,04,10,13,52,32.20
2013,04,10,13,53,30.60
2013,04,10,13,54,40.20
2013,04,10,13,55,25.70
2013,04,10,13,56,17.70
2013,04,10,13,57,17.70
2013,04,10,13,58,30.60
2013,04,10,13,59,30.60
2013,04,10,14,00,29.00
2013,04,10,14,01,25.70
2013,04,10,14,02,25.70
2013,04,10,14,03,19.30
2013,04,10,14,04,30.60
2013,04,10,14,05,27.40
2013,04,10,14,06,19.30
2013,04,10,14,07,17.70
2013,04,10,14,08,29.00
2013,04,10,14,09,29.00
2013,04,10,14,10,19.30
2013,04,10,14,11,29.00
2013,04,10,14,12,30.60
2013,04,10,14,13,32.20
2013,04,10,14,14,33.80
2013,04,10,14,15,30.60
2013,04,10,14,16,29.00
2013,04,10,14,17,37.00
2013,04,10,14,18,27.40
2013,04,10,14,19,22.50
2013,04,10,14,20,37.00
2013,04,10,14,21,35.40
2013,04,10,14,22,27.40
2013,04,10,14,23,32.20
2013,04,10,14,24,35.40
2013,04,10,14,25,27.40
2013,04,10,14,26,33.80
2013,04,10,14,27,29.00
2013,04,10,14,28,32.20
2013,04,10,14,29,33.80
2013,04,10,14,30,30.60
2013,04,10,14,31,27.40
2013,04,10,14,32,29.00
2013,04,10,14,33,45.10
2013,04,10,14,34,32.20
2013,04,10,14,35,35.40
2013,04,10,14,36,30.60
2013,04,10,14,37,30.60
2013,04,10,14,38,32.20
2013,04,10,14,39,37.00
2013,04,10,14,40,24.20
2013,04,10,14,41,35.40
2013,04,10,14,42,22.50
2013,04,10,14,43,25.70
2013,04,10,14,44,30.60
2013,04,10,14,45,24.20
2013,04,10,14,46,29.00
2013,04,10,14,47,27.40
2013,04,10,14,48,43.50
2013,04,10,14,49,27.40
2013,04,10,14,50,32.20
2013,04,10,14,51,49.90
2013,04,10,14,52,41.80
2013,04,10,14,53,29.00
2013,04,10,14,54,32.20
2013,04,10,14,55,27.40
2013,04,10,14,56,25.70
2013,04,10,14,57,32.20
2013,04,10,14,58,29.00
2013,04,10,14,59,38.60
2013,04,10,15,00,32.20
2013,04,10,15,01,38.60
2013,04,10,15,02,24.20
2013,04,10,15,03,35.40
2013,04,10,15,04,30.60
2013,04,10,15,05,20.90
2013,04,10,15,06,29.00
2013,04,10,15,07,29.00
2013,04,10,15,08,37.00
2013,04,10,15,09,32.20
2013,04,10,15,10,41.80
2013,04,10,15,11,30.60
2013,04,10,15,12,33.80
2013,04,10,15,13,25.70
2013,04,10,15,14,29.00
2013,04,10,15,15,27.40
2013,04,10,15,16,32.20
2013,04,10,15,17,45.10
2013,04,10,15,18,43.50
2013,04,10,15,19,33.80
2013,04,10,15,20,40.20
2013,04,10,15,21,35.40
2013,04,10,15,22,46.70
2013,04,10,15,23,33.80
2013,04,10,15,24,38.60
2013,04,10,15,25,25.70
2013,04,10,15,26,19.30
2013,04,10,15,27,30.60
2013,04,10,15,28,30.60
2013,04,10,15,29,30.60
2013,04,10,15,30,49.90
2013,04,10,15,31,30.60
2013,04,10,15,32,37.00
2013,04,10,15,33,27.40
2013,04,10,15,34,48.30
2013,04,10,15,35,32.20
2013,04,10,15,36,30.60
2013,04,10,15,37,30.60
2013,04,10,15,38,45.10
2013,04,10,15,39,37.00
2013,04,10,15,40,53.10
2013,04,10,15,41,41.80
2013,04,10,15,42,35.40
2013,04,10,15,43,41.80
2013,04,10,15,44,48.30
2013,04,10,15,45,33.80
2013,04,10,15,46,48.30
2013,04,10,15,47,40.20
2013,04,10,15,48,35.40
2013,04,10,15,49,19.30
2013,04,10,15,50,35.40
2013,04,10,15,51,24.20
2013,04,10,15,52,27.40
2013,04,10,15,53,35.40
2013,04,10,15,54,41.80
2013,04,10,15,55,32.20
2013,04,10,15,56,32.20
2013,04,10,15,57,40.20
2013,04,10,15,58,30.60
2013,04,10,15,59,29.00
2013,04,10,16,00,35.40
2013,04,10,16,01,35.40
2013,04,10,16,02,45.10
2013,04,10,16,03,35.40
2013,04,10,16,04,35.40
2013,04,10,16,05,37.00
2013,04,10,16,06,32.20
2013,04,10,16,07,35.40
2013,04,10,16,08,30.60
2013,04,10,16,09,30.60
2013,04,10,16,10,37.00
2013,04,10,16,11,33.80
2013,04,10,16,12,37.00
2013,04,10,16,13,27.40
2013,04,10,16,14,32.20
2013,04,10,16,15,38.60
2013,04,10,16,16,37.00
2013,04,10,16,17,48.30
2013,04,10,16,18,41.80
2013,04,10,16,19,24.20
2013,04,10,16,20,37.00
2013,04,10,16,21,33.80
2013,04,10,16,22,33.80
2013,04,10,16,23,48.30
2013,04,10,16,24,37.00
2013,04,10,16,25,16.10
2013,04,10,16,26,37.00
2013,04,10,16,27,24.20
2013,04,10,16,28,35.40
2013,04,10,16,29,27.40
2013,04,10,16,30,30.60
2013,04,10,16,31,33.80
2013,04,10,16,32,33.80
2013,04,10,16,33,35.40
2013,04,10,16,34,33.80
2013,04,10,16,35,29.00
2013,04,10,16,36,27.40
2013,04,10,16,37,38.60
2013,04,10,16,38,33.80
2013,04,10,16,39,33.80
2013,04,10,16,40,30.60
2013,04,10,16,41,38.60
2013,04,10,16,42,20.90
2013,04,10,16,43,22.50
2013,04,10,16,44,37.00
2013,04,10,16,45,32.20
2013,04,10,16,46,29.00
2013,04,10,16,47,25.70
2013,04,10,16,48,35.40
2013,04,10,16,49,35.40
2013,04,10,16,50,25.70
2013,04,10,16,51,33.80
2013,04,10,16,52,25.70
2013,04,10,16,53,27.40
2013,04,10,16,54,57.90
2013,04,10,16,55,38.60
2013,04,10,16,56,32.20
2013,04,10,16,57,30.60
2013,04,10,16,58,32.20
2013,04,10,16,59,40.20
2013,04,10,17,00,35.40
2013,04,10,17,01,41.80
2013,04,10,17,02,41.80
2013,04,10,17,03,32.20
2013,04,10,17,04,30.60
2013,04,10,17,05,32.20
2013,04,10,17,06,27.40
2013,04,10,17,07,40.20
2013,04,10,17,08,37.00
2013,04,10,17,09,30.60
2013,04,10,17,10,25.70
2013,04,10,17,11,29.00
2013,04,10,17,12,48.30
2013,04,10,17,13,38.60
2013,04,10,17,14,30.60
2013,04,10,17,15,32.20
2013,04,10,17,16,30.60
2013,04,10,17,17,33.80
2013,04,10,17,18,24.20
2013,04,10,17,19,30.60
2013,04,10,17,20,27.40
2013,04,10,17,21,41.80
2013,04,10,17,22,29.00
2013,04,10,17,23,27.40
2013,04,10,17,24,45.10
2013,04,10,17,25,40.20
2013,04,10,17,26,41.80
2013,04,10,17,27,40.20
2013,04,10,17,28,38.60
2013,04,10,17,29,35.40
2013,04,10,17,30,32.20
2013,04,10,17,31,35.40
2013,04,10,17,32,35.40
2013,04,10,17,33,25.70
2013,04,10,17,34,25.70
2013,04,10,17,35,30.60
2013,04,10,17,36,51.50
2013,04,10,17,37,48.30
2013,04,10,17,38,22.50
2013,04,10,17,39,24.20
2013,04,10,17,40,37.00
2013,04,10,17,41,30.60
2013,04,10,17,42,35.40
2013,04,10,17,43,49.90
2013,04,10,17,44,35.40
2013,04,10,17,45,27.40
2013,04,10,17,46,32.20
2013,04,10,17,47,41.80
2013,04,10,17,48,33.80
2013,04,10,17,49,48.30
2013,04,10,17,50,29.00
2013,04,10,17,51,30.60
2013,04,10,17,52,33.80
2013,04,10,17,53,64.40
2013,04,10,17,54,45.10
2013,04,10,17,55,35.40
2013,04,10,17,56,46.70
2013,04,10,17,57,25.70
2013,04,10,17,58,27.40
2013,04,10,17,59,25.70
2013,04,10,18,00,35.40
2013,04,10,18,01,27.40
2013,04,10,18,02,35.40
2013,04,10,18,03,27.40
2013,04,10,18,04,29.00
2013,04,10,18,05,32.20
2013,04,10,18,06,29.00
2013,04,10,18,07,32.20
2013,04,10,18,08,22.50
2013,04,10,18,09,38.60
2013,04,10,18,10,32.20
2013,04,10,18,11,49.90
2013,04,10,18,12,33.80
2013,04,10,18,13,35.40
2013,04,10,18,14,20.90
2013,04,10,18,15,24.20
2013,04,10,18,16,29.00
2013,04,10,18,17,25.70
2013,04,10,18,18,27.40
2013,04,10,18,19,20.90
2013,04,10,18,20,30.60
2013,04,10,18,21,30.60
2013,04,10,18,22,33.80
2013,04,10,18,23,37.00
2013,04,10,18,24,27.40
2013,04,10,18,25,30.60
2013,04,10,18,26,33.80
2013,04,10,18,27,38.60
2013,04,10,18,28,25.70
2013,04,10,18,29,25.70
2013,04,10,18,30,33.80
2013,04,10,18,31,29.00
2013,04,10,18,32,25.70
2013,04,10,18,33,37.00
2013,04,10,18,34,27.40
2013,04,10,18,35,35.40
2013,04,10,18,36,29.00
2013,04,10,18,37,22.50
2013,04,10,18,38,27.40
2013,04,10,18,39,27.40
2013,04,10,18,40,24.20
2013,04,10,18,41,19.30
2013,04,10,18,42,33.80
2013,04,10,18,43,37.00
2013,04,10,18,44,37.00
2013,04,10,18,45,22.50
2013,04,10,18,46,30.60
2013,04,10,18,47,38.60
2013,04,10,18,48,33.80
2013,04,10,18,49,30.60
2013,04,10,18,50,38.60
2013,04,10,18,51,29.00
2013,04,10,18,52,33.80
2013,04,10,18,53,33.80
2013,04,10,18,54,33.80
2013,04,10,18,55,35.40
2013,04,10,18,56,30.60
2013,04,10,18,57,33.80
2013,04,10,18,58,40.20
2013,04,10,18,59,37.00
2013,04,10,19,00,20.90
2013,04,10,19,01,25.70
2013,04,10,19,02,32.20
2013,04,10,19,03,29.00
2013,04,10,19,04,30.60
2013,04,10,19,05,27.40
2013,04,10,19,06,45.10
2013,04,10,19,07,30.60
2013,04,10,19,08,20.90
2013,04,10,19,09,24.20
2013,04,10,19,10,27.40
2013,04,10,19,11,27.40
2013,04,10,19,12,19.30
2013,04,10,19,13,22.50
2013,04,10,19,14,35.40
2013,04,10,19,15,25.70
2013,04,10,19,16,29.00
2013,04,10,19,17,37.00
2013,04,10,19,18,30.60
2013,04,10,19,19,20.90
2013,04,10,19,20,24.20
2013,04,10,19,21,29.00
2013,04,10,19,22,33.80
2013,04,10,19,23,19.30
2013,04,10,19,24,35.40
2013,04,10,19,25,35.40
2013,04,10,19,26,27.40
2013,04,10,19,27,40.20
2013,04,10,19,28,33.80
2013,04,10,19,29,32.20
2013,04,10,19,30,29.00
2013,04,10,19,31,35.40
2013,04,10,19,32,19.30
2013,04,10,19,33,41.80
2013,04,10,19,34,33.80
2013,04,10,19,35,30.60
2013,04,10,19,36,29.00
2013,04,10,19,37,32.20
2013,04,10,19,38,27.40
2013,04,10,19,39,30.60
2013,04,10,19,40,37.00
2013,04,10,19,41,32.20
2013,04,10,19,42,30.60
2013,04,10,19,43,29.00
2013,04,10,19,44,20.90
2013,04,10,19,45,22.50
2013,04,10,19,46,24.20
2013,04,10,19,47,30.60
2013,04,10,19,48,37.00
2013,04,10,19,49,29.00
2013,04,10,19,50,37.00
2013,04,10,19,51,25.70
2013,04,10,19,52,32.20
2013,04,10,19,53,29.00
2013,04,10,19,54,35.40
2013,04,10,19,55,25.70
2013,04,10,19,56,24.20
2013,04,10,19,57,20.90
2013,04,10,19,58,22.50
2013,04,10,19,59,24.20
2013,04,10,20,00,27.40
2013,04,10,20,01,25.70
2013,04,10,20,02,25.70
2013,04,10,20,03,35.40
2013,04,10,20,04,14.50
2013,04,10,20,05,22.50
2013,04,10,20,06,33.80
2013,04,10,20,07,12.90
2013,04,10,20,08,17.70
2013,04,10,20,09,19.30
2013,04,10,20,10,16.10
2013,04,10,20,11,22.50
2013,04,10,20,12,35.40
2013,04,10,20,13,29.00
2013,04,10,20,14,22.50
2013,04,10,20,15,20.90
2013,04,10,20,16,19.30
2013,04,10,20,17,19.30
2013,04,10,20,18,22.50
2013,04,10,20,19,24.20
2013,04,10,20,20,35.40
2013,04,10,20,21,22.50
2013,04,10,20,22,32.20
2013,04,10,20,23,29.00
2013,04,10,20,24,22.50
2013,04,10,20,25,16.10
2013,04,10,20,26,17.70
2013,04,10,20,27,35.40
2013,04,10,20,28,19.30
2013,04,10,20,29,16.10
2013,04,10,20,30,22.50
2013,04,10,20,31,14.50
2013,04,10,20,32,24.20
2013,04,10,20,33,30.60
2013,04,10,20,34,30.60
2013,04,10,20,35,27.40
2013,04,10,20,36,20.90
2013,04,10,20,37,24.20
2013,04,10,20,38,45.10
2013,04,10,20,39,49.90
2013,04,10,20,40,33.80
2013,04,10,20,41,29.00
2013,04,10,20,42,45.10
2013,04,10,20,43,41.80
2013,04,10,20,44,40.20
2013,04,10,20,45,32.20
2013,04,10,20,46,25.70
2013,04,10,20,47,32.20
2013,04,10,20,48,37.00
2013,04,10,20,49,46.70
2013,04,10,20,50,30.60
2013,04,10,20,51,32.20
2013,04,10,20,52,30.60
2013,04,10,20,53,29.00
2013,04,10,20,54,27.40
2013,04,10,20,55,37.00
2013,04,10,20,56,30.60
2013,04,10,20,57,33.80
2013,04,10,20,58,27.40
2013,04,10,20,59,27.40
2013,04,10,21,00,22.50
2013,04,10,21,01,37.00
2013,04,10,21,02,35.40
2013,04,10,21,03,40.20
2013,04,10,21,04,38.60
2013,04,10,21,05,29.00
2013,04,10,21,06,29.00
2013,04,10,21,07,29.00
2013,04,10,21,08,48.30
2013,04,10,21,09,49.90
2013,04,10,21,10,33.80
2013,04,10,21,11,51.50
2013,04,10,21,12,33.80
2013,04,10,21,13,35.40
2013,04,10,21,14,38.60
2013,04,10,21,15,38.60
2013,04,10,21,16,25.70
2013,04,10,21,17,40.20
2013,04,10,21,18,29.00
2013,04,10,21,19,51.50
2013,04,10,21,20,27.40
2013,04,10,21,21,33.80
2013,04,10,21,22,25.70
2013,04,10,21,23,38.60
2013,04,10,21,24,22.50
2013,04,10,21,25,40.20
2013,04,10,21,26,41.80
2013,04,10,21,27,40.20
2013,04,10,21,28,22.50
2013,04,10,21,29,30.60
2013,04,10,21,30,41.80
2013,04,10,21,31,32.20
2013,04,10,21,32,33.80
2013,04,10,21,33,24.20
2013,04,10,21,34,29.00
2013,04,10,21,35,35.40
2013,04,10,21,36,30.60
2013,04,10,21,37,35.40
2013,04,10,21,38,35.40
2013,04,10,21,39,32.20
2013,04,10,21,40,43.50
2013,04,10,21,41,41.80
2013,04,10,21,42,29.00
2013,04,10,21,43,35.40
2013,04,10,21,44,30.60
2013,04,10,21,45,27.40
2013,04,10,21,46,35.40
2013,04,10,21,47,24.20
2013,04,10,21,48,40.20
2013,04,10,21,49,32.20
2013,04,10,21,50,32.20
2013,04,10,21,51,20.90
2013,04,10,21,52,29.00
2013,04,10,21,53,35.40
2013,04,10,21,54,33.80
2013,04,10,21,55,27.40
2013,04,10,21,56,22.50
2013,04,10,21,57,35.40
2013,04,10,21,58,38.60
2013,04,10,21,59,32.20
2013,04,10,22,00,24.20
2013,04,10,22,01,25.70
2013,04,10,22,02,29.00
2013,04,10,22,03,17.70
2013,04,10,22,04,20.90
2013,04,10,22,05,17.70
2013,04,10,22,06,29.00
2013,04,10,22,07,22.50
2013,04,10,22,08,24.20
2013,04,10,22,09,19.30
2013,04,10,22,10,25.70
2013,04,10,22,11,30.60
2013,04,10,22,12,32.20
2013,04,10,22,13,33.80
2013,04,10,22,14,25.70
2013,04,10,22,15,19.30
2013,04,10,22,16,17.70
2013,04,10,22,17,24.20
2013,04,10,22,18,35.40
2013,04,10,22,19,20.90
2013,04,10,22,20,22.50
2013,04,10,22,21,27.40
2013,04,10,22,22,30.60
2013,04,10,22,23,25.70
2013,04,10,22,24,19.30
2013,04,10,22,25,27.40
2013,04,10,22,26,20.90
2013,04,10,22,27,37.00
2013,04,10,22,28,19.30
2013,04,10,22,29,22.50
2013,04,10,22,30,30.60
2013,04,10,22,31,32.20
2013,04,10,22,32,29.00
2013,04,10,22,33,37.00
2013,04,10,22,34,35.40
2013,04,10,22,35,27.40
2013,04,10,22,36,25.70
2013,04,10,22,37,25.70
2013,04,10,22,38,29.00
2013,04,10,22,39,32.20
2013,04,10,22,40,35.40
2013,04,10,22,41,25.70
2013,04,10,22,42,27.40
2013,04,10,22,43,27.40
2013,04,10,22,44,32.20
2013,04,10,22,45,33.80
2013,04,10,22,46,27.40
2013,04,10,22,47,30.60
2013,04,10,22,48,27.40
2013,04,10,22,49,22.50
2013,04,10,22,50,27.40
2013,04,10,22,51,20.90
2013,04,10,22,52,32.20
2013,04,10,22,53,27.40
2013,04,10,22,54,35.40
2013,04,10,22,55,25.70
2013,04,10,22,56,38.60
2013,04,10,22,57,37.00
2013,04,10,22,58,32.20
2013,04,10,22,59,19.30
2013,04,10,23,00,22.50
2013,04,10,23,01,32.20
2013,04,10,23,02,29.00
2013,04,10,23,03,29.00
2013,04,10,23,04,27.40
2013,04,10,23,05,41.80
2013,04,10,23,06,25.70
2013,04,10,23,07,25.70
2013,04,10,23,08,25.70
2013,04,10,23,09,29.00
2013,04,10,23,10,22.50
2013,04,10,23,11,25.70
2013,04,10,23,12,25.70
2013,04,10,23,13,19.30
2013,04,10,23,14,30.60
2013,04,10,23,15,32.20
2013,04,10,23,16,25.70
2013,04,10,23,17,19.30
2013,04,10,23,18,30.60
2013,04,10,23,19,22.50
2013,04,10,23,20,20.90
2013,04,10,23,21,20.90
2013,04,10,23,22,19.30
2013,04,10,23,23,16.10
2013,04,10,23,24,25.70
2013,04,10,23,25,29.00
2013,04,10,23,26,27.40
2013,04,10,23,27,33.80
2013,04,10,23,28,24.20
2013,04,10,23,29,24.20
2013,04,10,23,30,30.60
2013,04,10,23,31,24.20
2013,04,10,23,32,29.00
2013,04,10,23,33,30.60
2013,04,10,23,34,30.60
2013,04,10,23,35,27.40
2013,04,10,23,36,17.70
2013,04,10,23,37,24.20
2013,04,10,23,38,17.70
2013,04,10,23,39,24.20
2013,04,10,23,40,24.20
2013,04,10,23,41,19.30
2013,04,10,23,42,19.30
2013,04,10,23,43,24.20
2013,04,10,23,44,16.10
2013,04,10,23,45,29.00
2013,04,10,23,46,20.90
2013,04,10,23,47,22.50
2013,04,10,23,48,22.50
2013,04,10,23,49,12.90
2013,04,10,23,50,22.50
2013,04,10,23,51,16.10
2013,04,10,23,52,22.50
2013,04,10,23,53,11.30
2013,04,10,23,54,22.50
2013,04,10,23,55,14.50
2013,04,10,23,56,22.50
2013,04,10,23,57,17.70
2013,04,10,23,58,14.50
2013,04,10,23,59,11.30
